Location: ??????
(56.0120°N, 39.1740°E)
Time: 06:03:47
(UTC+00:00)

CZ-4B DEB - Pass Details

Date: 14 April 2026
Orbit: 834 x 853 km, 98.9° (Epoch: 10 May)

Event Time Altitude Azimuth Distance (km) Brightness Sun altitude
Rises 17:11:25 0° 164° (SSE) 3,386 6.9 -6.4°
Reaches altitude 10° 17:13:46 10° 165° (SSE) 2,458 6.2 -6.7°
Maximum altitude 17:19:14 82° 253° (WSW) 861 4.4 -7.4°
Drops below altitude 10° 17:24:46 10° 342° (NNW) 2,487 7.4 -8.0°
Sets 17:27:09 0° 343° (NNW) 3,430 8.2 -8.3°
